Volver al catálogo

NOAA 16 DEB

ActivoPO
NORAD 42339·DEBRIS·🇺🇸 United States

Lanzado Sep 21, 2000 desde Vandenberg Space Force Base

Loading…

Próximos Pases (próximas 24 horas)

TLE

ActualizadoSource: Space-Track

Época: Sep 12, 2026, 10:27 UTC

1 42339U 00055QF  26255.43575318  .00002846  00000-0  86130-3 0  9998
2 42339  99.0811 130.8164 0018281  34.3465 325.8901 14.43073737540083

Sigue NOAA 16 DEB en tiempo real con AllMySat

Download on the App Store